Olney-Noble, IL

3:21 PM CDT on October 19, 2017 (GMT -0500)
Olney-Noble

Weather History for KOLY - August, 2012

Change the Weather History Date:

Friday, August 24, 2012

  Actual Average (KEVV) Record (KEVV)
Temperature  
Mean Temperature 79 °F -  
Max Temperature 98 °F 86 °F 101 °F (1943)
Min Temperature 60 °F 64 °F 52 °F (1966)
Cooling Degree Days 14    
Growing Degree Days 29 (Base 50)    
Moisture  
Dew Point 59 °F    
Average Humidity 54    
Maximum Humidity 100    
Minimum Humidity 22    
Precipitation  
Precipitation 0.00 in - - ()
Sea Level Pressure  
Sea Level Pressure 30.02 in    
Wind  
Wind Speed 2 mph (SW)    
Max Wind Speed 8 mph    
Max Gust Speed -    
Visibility 10 miles    
Events      
Averages and records for this station are not official NWS values.
T = Trace of Precipitation, MM = Missing Value Source: NWS Daily Summary

Daily Weather History Graph

Daily Weather History Graph

Search for Another Location

Airport or City:

Trip Planner

Search our weather history database for the weather conditions in past years. The results will help you decide how hot, cold, wet, or windy it might be!

Date:

Astronomy

Aug. 24, 2012 Rise Set
Actual Time 6:15 AM CDT 7:34 PM CDT
Civil Twilight 5:47 AM CDT 8:01 PM CDT
Nautical Twilight 5:14 AM CDT 8:34 PM CDT
Astronomical Twilight 4:39 AM CDT 9:09 PM CDT
Moon 2:02 PM CDT (8/24) No Moon Set
Length of Visible Light 14h 14m
Length of Day
13h 18m
First Quarter, 52% of the Moon is Illuminated
Aug 24
First Quarter
Aug 31
Full
Sep 8
Last Quarter
Sep 15
New
Sep 22
First Quarter

Hourly Weather History & Observations

Time (CDT) Temp. Heat Index Dew Point Humidity Pressure Visibility Wind Dir Wind Speed Gust Speed Precip Events Conditions
12:15 AM 66.2 °F - 60.8 °F 83% 30.04 in 10.0 mi Calm Calm - N/A   Clear
12:35 AM 66.2 °F - 60.8 °F 83% 30.04 in 10.0 mi Calm Calm - N/A   Clear
12:55 AM 66.2 °F - 60.8 °F 83% 30.04 in 10.0 mi Calm Calm - N/A   Clear
1:15 AM 66.2 °F - 60.8 °F 83% 30.04 in 10.0 mi Calm Calm - N/A   Clear
1:35 AM 66.2 °F - 60.8 °F 83% 30.04 in 10.0 mi Calm Calm - N/A   Clear
1:55 AM 64.4 °F - 60.8 °F 88% 30.04 in 10.0 mi Calm Calm - N/A   Clear
2:15 AM 64.4 °F - 60.8 °F 88% 30.04 in 10.0 mi Calm Calm - N/A   Clear
2:35 AM 64.4 °F - 59.0 °F 83% 30.04 in 10.0 mi Calm Calm - N/A   Clear
2:55 AM 64.4 °F - 60.8 °F 88% 30.04 in 10.0 mi Calm Calm - N/A   Clear
3:15 AM 64.4 °F - 59.0 °F 83% 30.04 in 10.0 mi Calm Calm - N/A   Clear
3:35 AM 62.6 °F - 59.0 °F 88% 30.03 in 10.0 mi Calm Calm - N/A   Clear
3:55 AM 62.6 °F - 59.0 °F 88% 30.03 in 10.0 mi Calm Calm - N/A   Clear
4:15 AM 62.6 °F - 60.8 °F 94% 30.03 in 10.0 mi Calm Calm - N/A   Clear
4:35 AM 62.6 °F - 60.8 °F 94% 30.03 in 10.0 mi Calm Calm - N/A   Clear
4:55 AM 62.6 °F - 60.8 °F 94% 30.03 in 10.0 mi Calm Calm - N/A   Clear
5:15 AM 62.6 °F - 60.8 °F 94% 30.03 in 10.0 mi Calm Calm - N/A   Clear
5:35 AM 60.8 °F - 60.8 °F 100% 30.04 in 10.0 mi Calm Calm - N/A   Clear
5:55 AM 62.6 °F - 62.6 °F 100% 30.04 in 10.0 mi Calm Calm - N/A   Clear
7:55 AM 73.4 °F - 62.6 °F 69% 30.06 in 10.0 mi SSE 3.5 mph - N/A   Clear
8:15 AM 73.4 °F - 62.6 °F 69% 30.06 in 10.0 mi SSE 5.8 mph - N/A   Clear
8:35 AM 77.0 °F - 62.6 °F 61% 30.06 in 10.0 mi SSE 3.5 mph - N/A   Clear
8:55 AM 80.6 °F 81.8 °F 62.6 °F 54% 30.06 in 10.0 mi SSE 3.5 mph - N/A   Clear
9:15 AM 82.4 °F 83.4 °F 62.6 °F 51% 30.06 in 10.0 mi SSW 4.6 mph - N/A   Clear
9:35 AM 84.2 °F 84.4 °F 60.8 °F 45% 30.06 in 10.0 mi SSW 6.9 mph - N/A   Clear
9:55 AM 87.8 °F 87.1 °F 59.0 °F 38% 30.05 in 10.0 mi SW 4.6 mph - N/A   Clear
10:15 AM 87.8 °F 86.5 °F 57.2 °F 35% 30.05 in 10.0 mi WSW 3.5 mph - N/A   Clear
10:35 AM 89.6 °F 88.9 °F 59.0 °F 36% 30.05 in 10.0 mi SSW 4.6 mph - N/A   Clear
10:55 AM 91.4 °F 90.7 °F 59.0 °F 34% 30.05 in 10.0 mi South 3.5 mph - N/A   Clear
11:15 AM 91.4 °F 89.9 °F 57.2 °F 31% 30.05 in 10.0 mi WSW 5.8 mph - N/A   Clear
11:35 AM 93.2 °F 92.6 °F 59.0 °F 32% 30.04 in 10.0 mi WSW 4.6 mph - N/A   Clear
11:55 AM 93.2 °F 91.9 °F 57.2 °F 30% 30.03 in 10.0 mi WNW 3.5 mph - N/A   Clear
12:15 PM 96.8 °F 95.8 °F 57.2 °F 27% 30.03 in 10.0 mi West 5.8 mph - N/A   Clear
12:35 PM 93.2 °F 91.9 °F 57.2 °F 30% 30.02 in 10.0 mi Calm Calm - N/A   Clear
12:55 PM 96.8 °F 95.8 °F 57.2 °F 27% 30.02 in 10.0 mi SSW 5.8 mph - N/A   Clear
1:15 PM 95.0 °F 93.7 °F 57.2 °F 28% 30.02 in 10.0 mi WSW 3.5 mph - N/A   Clear
1:35 PM 91.4 °F 89.9 °F 57.2 °F 31% 30.02 in 10.0 mi Calm Calm - N/A   Clear
1:55 PM 96.8 °F 95.8 °F 57.2 °F 27% 30.01 in 10.0 mi WSW 4.6 mph - N/A   Clear
2:15 PM 96.8 °F 95.8 °F 57.2 °F 27% 30.00 in 10.0 mi WSW 5.8 mph - N/A   Clear
2:35 PM 96.8 °F 95.1 °F 55.4 °F 25% 29.99 in 10.0 mi WNW 6.9 mph - N/A   Clear
3:15 PM 98.6 °F 97.2 °F 55.4 °F 24% 29.98 in 10.0 mi West 4.6 mph - N/A   Clear
3:35 PM - - - N/A% 29.98 in 10.0 mi SW 5.8 mph - N/A   Clear
3:55 PM 93.2 °F 91.3 °F 55.4 °F 28% 29.98 in 10.0 mi Calm Calm - N/A   Clear
4:15 PM 96.8 °F 95.1 °F 55.4 °F 25% 29.98 in 10.0 mi West 5.8 mph - N/A   Clear
4:35 PM 98.6 °F 97.2 °F 55.4 °F 24% 29.97 in 10.0 mi West 4.6 mph - N/A   Clear
4:55 PM 98.6 °F 96.4 °F 53.6 °F 22% 29.97 in 10.0 mi West 8.1 mph - N/A   Clear
5:15 PM 96.8 °F 94.4 °F 53.6 °F 23% 29.97 in 10.0 mi WSW 5.8 mph - N/A   Clear
5:35 PM 96.8 °F 95.1 °F 55.4 °F 25% 29.97 in 10.0 mi SSW 5.8 mph - N/A   Clear
5:55 PM 95.0 °F 92.7 °F 53.6 °F 25% 29.97 in 10.0 mi South 4.6 mph - N/A   Clear
6:15 PM 93.2 °F 90.8 °F 53.6 °F 26% 29.97 in 10.0 mi SW 4.6 mph - N/A   Clear
6:35 PM 91.4 °F 89.4 °F 55.4 °F 29% 29.97 in 10.0 mi SSW 4.6 mph - N/A   Clear
6:55 PM 89.6 °F 87.7 °F 55.4 °F 31% 29.97 in 10.0 mi SSW 3.5 mph - N/A   Clear
7:15 PM 87.8 °F 86.1 °F 55.4 °F 33% 29.98 in 10.0 mi Calm Calm - N/A   Clear
7:35 PM 84.2 °F 83.0 °F 55.4 °F 37% 29.98 in 10.0 mi Calm Calm - N/A   Clear
7:55 PM 84.2 °F 83.5 °F 57.2 °F 40% 29.99 in 10.0 mi Calm Calm - N/A   Clear
8:15 PM 82.4 °F 82.0 °F 57.2 °F 42% 29.99 in 10.0 mi Calm Calm - N/A   Scattered Clouds
8:35 PM 82.4 °F 82.0 °F 57.2 °F 42% 30.00 in 10.0 mi SSW 4.6 mph - N/A   Scattered Clouds
8:55 PM 80.6 °F 81.1 °F 59.0 °F 48% 30.01 in 10.0 mi SW 3.5 mph - N/A   Clear
9:15 PM 80.6 °F 81.1 °F 59.0 °F 48% 30.02 in 10.0 mi Calm Calm - N/A   Clear
9:35 PM 77.0 °F - 60.8 °F 57% 30.02 in 10.0 mi Calm Calm - N/A   Clear
9:55 PM 75.2 °F - 60.8 °F 61% 30.03 in 10.0 mi Calm Calm - N/A   Clear
10:15 PM 71.6 °F - 60.8 °F 69% 30.03 in 10.0 mi Calm Calm - N/A   Clear
10:35 PM 71.6 °F - 60.8 °F 69% 30.03 in 10.0 mi Calm Calm - N/A   Clear
11:15 PM 69.8 °F - 60.8 °F 73% 30.04 in 10.0 mi Calm Calm - N/A   Clear
11:35 PM 69.8 °F - 60.8 °F 73% 30.04 in 10.0 mi Calm Calm - N/A   Clear
11:55 PM 69.8 °F - 60.8 °F 73% 30.04 in 10.0 mi Calm Calm - N/A   Clear